Lid_Strength_Index
11 10 11 12 13 11 12 12 14 12 12 10 8 7 6 7 6 6 6 6 6 7 7 7 8 8 8 8 7 5 4 3 3 3 3 3 3 3 4 4 4 4 5 6
14 11 11 13 11 11 12 13 13 12 13 8 6 6 6 6 6 6 5 5 5 7 8 8 8 8 9 9 9 8 7 5 4 6 8 8 8 9 9 10 9 9 10 10
16 12 13 16 12 11 10 10 10 13 10 7 7 7 7 7 7 6 6 5 5 5 5 6 7 8 9 9 9 9 8 9 9 10 10 9 9 9 9 9 10 10 10 10
15 14 20 11 8 8 10 9 8 8 9 8 7 7 6 6 6 6 6 5 5 5 5 5 7 7 8 8 9 9 9 9 10 10 11 11 11 10 10 10 10 11 11 12
16 16 13 12 11 10 11 11 7 8 8 7 7 6 7 5 5 5 5 4 4 3 3 4 6 7 9 10 10 10 10 10 10 10 12 12 12 12 12 12 13 13 13 13
15 17 18 12 9 7 7 13 7 7 7 7 6 10 9 5 5 5 4 4 4 3 3 3 5 7 9 10 10 11 11 10 10 11 12 12 12 12 13 12 14 14 14 14
15 16 14 11 9 7 14 14 7 7 7 7 9 8 7 6 6 5 5 5 4 4 4 4 5 8 9 9 10 9 11 11 12 12 13 12 13 13 13 14 14 15 15 15
14 16 18 8 9 11 9 7 7 8 8 10 9 9 8 7 7 6 5 5 4 5 5 5 6 8 9 10 9 10 12 13 13 14 14 14 15 14 14 14 15 15 16 16
12 12 8 7 7 9 9 10 11 12 11 12 12 11 10 10 9 8 8 7 6 6 6 6 9 9 9 9 10 12 13 14 14 14 14 14 15 15 14 14 14 15 16 16
10 9 8 7 9 12 13 14 14 14 14 13 13 12 12 11 11 10 10 9 9 9 10 10 10 11 9 11 12 13 13 14 14 15 15 15 14 14 14 14 14 15 16 16
10 9 8 8 14 15 15 14 15 15 15 15 15 14 13 13 12 11 11 10 9 10 11 10 11 12 12 13 13 13 14 14 15 15 15 16 15 15 14 14 14 15 15 15
11 18 18 14 16 16 16 17 17 17 16 16 16 15 14 13 12 12 12 11 11 11 12 12 13 13 14 14 13 14 15 15 15 15 16 16 16 17 16 16 15 15 15 15
21 21 20 19 17 16 19 19 17 17 17 18 16 15 14 15 14 13 13 13 13 13 13 13 14 15 15 14 14 14 14 15 15 16 16 16 16 16 17 16 15 15 15 14
21 22 20 19 21 20 20 19 19 19 18 17 17 17 17 16 16 16 15 16 17 16 16 15 15 15 16 14 14 14 14 15 16 16 16 15 15 16 16 16 17 16 14 14
23 23 23 23 22 22 21 21 21 21 20 20 19 19 19 18 19 19 20 21 19 18 19 18 19 21 21 16 15 15 16 16 16 16 16 16 16 16 17 17 18 20 20 18
25 25 25 26 26 25 24 23 24 23 22 23 22 21 21 20 20 23 24 25 24 22 24 23 23 25 22 18 17 17 17 18 18 19 20 19 19 19 19 19 20 20 19 19
29 29 28 28 27 26 26 24 24 24 24 24 23 23 23 24 23 26 26 26 27 28 27 27 27 25 23 19 18 18 19 20 19 19 19 19 19 20 20 20 21 21 21 22
27 27 27 27 27 26 26 25 25 25 25 24 24 25 26 27 27 27 27 26 27 28 28 27 25 25 25 23 22 21 21 21 21 22 22 21 21 21 21 22 22 22 22 20
28 28 27 27 26 26 26 26 26 25 24 24 25 26 26 27 28 28 28 29 29 30 29 27 24 25 24 23 23 23 23 23 23 23 23 23 23 23 23 23 22 22 23 24
28 28 27 27 26 26 27 26 26 26 26 26 25 27 28 29 28 27 27 30 29 28 27 27 26 26 26 25 23 23 23 23 24 24 23 24 24 24 24 24 24 25 25 25
29 29 28 28 28 27 27 26 27 28 27 27 28 29 28 28 29 29 29 30 29 27 26 26 26 26 25 25 24 24 24 24 24 24 24 25 25 25 25 25 25 25 25 25
28 28 28 28 28 28 27 27 27 28 28 29 29 29 29 30 30 28 29 30 28 27 26 25 25 26 26 25 25 25 25 25 25 25 25 24 24 24 24 25 25 25 25 25
27 27 26 27 27 27 27 28 28 28 28 29 29 30 30 29 30 31 31 29 28 27 27 26 25 26 26 26 26 26 26 26 26 26 25 25 25 25 25 25 25 25 25 26
27 26 26 26 26 27 28 28 27 27 27 27 28 28 29 30 28 28 28 28 27 28 28 26 26 25 27 27 27 27 27 27 27 26 26 26 26 26 26 26 26 26 26 27
27 26 27 27 28 29 29 28 27 27 28 27 27 27 27 27 29 28 27 27 27 28 28 27 26 27 28 28 28 28 28 27 27 27 27 27 27 27 27 27 27 27 27 27
27 27 27 27 28 29 29 28 29 28 29 29 27 27 28 27 27 27 27 27 27 27 27 27 28 28 28 28 28 28 28 28 28 28 27 27 27 27 27 27 27 27 27 26
28 27 28 27 28 29 29 29 30 30 29 30 29 28 28 28 29 29 29 29 29 29 29 29 28 29 29 29 29 29 28 28 28 28 28 27 27 27 27 27 26 26 26 26